Temp
-8 -8 -9 -9 -9 -10 -10 -10 -10 -10 -10 -11 -11 -11 -11 -11 -11 -10 -10 -11 -10 -10 -10 -10 -10 -10 -10 -10 -10 -10 -10 -10 -10 -10 -9 -9 -9 -9 -9 -9 -8 -8 -8 -8 -8 -9 -9 -9 -9
-8 -8 -9 -9 -9 -10 -10 -10 -10 -10 -10 -10 -10 -11 -12 -11 -11 -11 -10 -11 -11 -11 -11 -11 -11 -10 -10 -10 -10 -10 -10 -10 -10 -10 -10 -10 -10 -9 -9 -9 -9 -9 -9 -8 -9 -9 -9 -9 -9
-9 -9 -9 -9 -9 -10 -10 -10 -10 -10 -10 -10 -10 -11 -11 -11 -11 -11 -11 -11 -11 -11 -11 -11 -11 -11 -11 -11 -11 -11 -10 -10 -10 -10 -10 -10 -10 -9 -9 -9 -9 -10 -9 -9 -9 -9 -9 -9 -9
-9 -9 -9 -10 -10 -10 -10 -10 -10 -10 -9 -9 -10 -11 -12 -12 -12 -12 -11 -11 -11 -12 -11 -11 -11 -11 -12 -11 -11 -11 -11 -11 -10 -10 -10 -10 -10 -10 -10 -9 -10 -10 -9 -9 -9 -9 -10 -10 -10
-9 -10 -10 -10 -10 -10 -10 -10 -11 -10 -11 -11 -10 -10 -12 -12 -12 -12 -12 -12 -12 -12 -12 -12 -11 -11 -12 -12 -11 -11 -11 -11 -11 -11 -10 -10 -10 -10 -10 -10 -10 -10 -9 -9 -9 -9 -10 -10 -10
-10 -10 -10 -10 -10 -10 -10 -10 -11 -12 -12 -11 -11 -11 -12 -12 -12 -13 -12 -12 -12 -12 -12 -12 -12 -11 -12 -12 -12 -12 -12 -12 -11 -11 -11 -10 -10 -10 -10 -10 -10 -10 -9 -9 -9 -9 -10 -10 -10
-10 -10 -10 -11 -10 -10 -10 -11 -11 -12 -12 -14 -13 -13 -11 -13 -13 -13 -13 -13 -13 -12 -12 -12 -12 -12 -11 -12 -12 -12 -12 -12 -12 -11 -11 -11 -11 -10 -10 -10 -10 -10 -10 -9 -9 -9 -10 -10 -10
-10 -11 -11 -11 -11 -10 -11 -11 -12 -13 -13 -14 -15 -14 -13 -13 -14 -13 -12 -13 -13 -13 -12 -12 -12 -12 -12 -11 -11 -12 -12 -11 -12 -12 -11 -11 -11 -10 -10 -10 -10 -10 -10 -10 -10 -10 -10 -10 -10
-11 -11 -11 -11 -11 -11 -11 -12 -13 -15 -15 -15 -16 -16 -15 -15 -14 -14 -12 -11 -13 -14 -13 -13 -13 -13 -12 -12 -12 -12 -12 -12 -11 -12 -12 -11 -11 -11 -11 -11 -10 -10 -10 -10 -10 -10 -10 -10 -10
-11 -11 -11 -11 -11 -11 -11 -13 -15 -15 -16 -16 -17 -17 -16 -16 -14 -15 -13 -12 -10 -13 -14 -13 -13 -13 -13 -13 -12 -12 -12 -12 -12 -12 -12 -12 -11 -11 -11 -11 -10 -10 -11 -10 -10 -10 -10 -10 -10
-11 -11 -11 -11 -11 -12 -12 -14 -16 -16 -17 -17 -17 -17 -17 -16 -15 -16 -14 -13 -12 -13 -14 -14 -13 -13 -13 -13 -13 -12 -12 -12 -12 -13 -12 -12 -12 -11 -11 -11 -11 -11 -11 -11 -11 -10 -10 -11 -11
-12 -12 -11 -12 -12 -13 -14 -16 -16 -16 -17 -17 -17 -17 -17 -17 -17 -17 -16 -15 -13 -13 -14 -14 -14 -13 -13 -13 -13 -13 -12 -12 -12 -12 -13 -12 -12 -12 -11 -11 -11 -11 -11 -11 -12 -11 -11 -11 -11
-12 -12 -12 -12 -12 -14 -17 -17 -17 -17 -17 -17 -17 -17 -17 -17 -17 -17 -17 -16 -14 -13 -13 -12 -13 -13 -13 -13 -13 -13 -13 -13 -12 -12 -13 -13 -12 -12 -12 -12 -11 -11 -11 -11 -12 -12 -12 -12 -12
-12 -12 -12 -12 -13 -16 -17 -17 -17 -17 -18 -18 -18 -18 -17 -17 -17 -18 -17 -16 -14 -14 -13 -12 -12 -13 -13 -13 -13 -13 -13 -12 -12 -12 -12 -13 -13 -13 -12 -12 -12 -12 -12 -12 -12 -12 -12 -11 -12
-12 -12 -12 -12 -14 -17 -18 -17 -17 -17 -18 -18 -18 -18 -18 -19 -18 -18 -17 -17 -15 -15 -14 -13 -13 -12 -13 -13 -13 -14 -13 -13 -13 -13 -13 -13 -13 -13 -14 -12 -13 -13 -12 -12 -12 -12 -12 -12 -12
-12 -12 -12 -13 -15 -16 -17 -17 -17 -18 -19 -19 -18 -18 -18 -19 -19 -18 -17 -17 -16 -15 -14 -14 -13 -14 -13 -13 -13 -13 -13 -13 -13 -13 -13 -13 -13 -13 -13 -14 -13 -13 -13 -13 -13 -12 -12 -12 -12
-12 -12 -12 -13 -16 -16 -17 -17 -18 -18 -19 -19 -19 -19 -18 -19 -19 -19 -18 -17 -16 -16 -15 -15 -14 -13 -13 -13 -13 -13 -13 -13 -13 -13 -14 -13 -13 -13 -14 -14 -14 -13 -13 -13 -13 -13 -13 -13 -13
-12 -12 -12 -14 -16 -16 -17 -17 -18 -19 -20 -20 -20 -19 -18 -19 -19 -19 -18 -17 -17 -17 -16 -15 -15 -14 -14 -13 -13 -13 -12 -13 -13 -13 -13 -14 -14 -13 -13 -14 -14 -14 -14 -15 -14 -13 -13 -13 -13
-13 -12 -13 -14 -16 -16 -16 -17 -17 -19 -20 -20 -19 -19 -19 -19 -19 -19 -18 -18 -18 -17 -17 -16 -15 -15 -15 -15 -13 -13 -13 -13 -13 -13 -14 -14 -13 -14 -13 -14 -14 -15 -14 -14 -15 -15 -14 -14 -14
-13 -13 -13 -15 -16 -16 -16 -17 -18 -18 -19 -19 -19 -19 -19 -19 -19 -19 -19 -18 -18 -18 -17 -16 -16 -16 -15 -14 -14 -13 -13 -13 -13 -13 -13 -13 -14 -14 -14 -14 -14 -14 -14 -14 -14 -14 -14 -14 -14
-13 -13 -13 -14 -16 -16 -17 -17 -18 -18 -18 -19 -19 -19 -19 -19 -19 -19 -18 -18 -18 -18 -17 -17 -16 -16 -15 -15 -14 -14 -13 -13 -13 -13 -13 -13 -14 -14 -14 -14 -14 -14 -14 -14 -14 -14 -14 -14 -15
-13 -13 -13 -13 -14 -17 -17 -17 -18 -18 -19 -19 -18 -19 -19 -20 -19 -18 -18 -18 -17 -17 -17 -17 -16 -16 -15 -15 -15 -14 -14 -14 -14 -13 -14 -13 -14 -14 -14 -14 -14 -14 -15 -14 -14 -14 -14 -14 -14
-13 -13 -13 -14 -14 -16 -17 -17 -17 -18 -18 -19 -19 -18 -19 -19 -19 -19 -18 -17 -17 -17 -16 -16 -16 -16 -15 -15 -14 -15 -14 -14 -14 -13 -14 -14 -14 -14 -14 -14 -13 -13 -14 -14 -14 -15 -15 -14 -14
-13 -13 -13 -13 -14 -14 -16 -17 -17 -17 -18 -18 -19 -19 -19 -19 -18 -19 -18 -17 -17 -17 -16 -16 -15 -15 -15 -15 -15 -15 -15 -15 -15 -14 -14 -14 -14 -14 -14 -14 -13 -14 -14 -14 -14 -14 -14 -15 -14
-13 -14 -13 -14 -14 -14 -16 -17 -17 -17 -18 -18 -18 -18 -19 -19 -18 -18 -17 -17 -17 -16 -16 -16 -15 -14 -14 -14 -14 -15 -15 -14 -14 -15 -14 -14 -14 -13 -14 -14 -14 -14 -14 -14 -14 -14 -14 -15 -15
-14 -14 -14 -14 -14 -15 -15 -17 -18 -17 -17 -18 -18 -18 -18 -19 -18 -18 -18 -17 -17 -16 -16 -16 -15 -15 -14 -14 -14 -14 -14 -14 -13 -13 -13 -13 -13 -13 -13 -14 -14 -14 -14 -14 -14 -15 -15 -15 -15
-14 -13 -14 -14 -14 -14 -15 -16 -17 -17 -17 -17 -18 -18 -18 -18 -18 -18 -18 -17 -17 -16 -16 -16 -15 -15 -15 -15 -15 -15 -14 -14 -13 -13 -14 -14 -14 -14 -14 -13 -14 -14 -14 -14 -14 -15 -15 -15 -16
-14 -14 -14 -14 -14 -14 -15 -15 -16 -17 -18 -18 -18 -18 -18 -18 -18 -18 -18 -18 -17 -16 -16 -15 -16 -16 -16 -15 -15 -15 -15 -15 -15 -15 -15 -15 -15 -14 -14 -14 -14 -15 -15 -15 -15 -14 -14 -15 -15
-14 -14 -14 -14 -15 -15 -15 -15 -15 -17 -18 -18 -18 -18 -18 -18 -18 -18 -18 -17 -17 -16 -16 -16 -16 -16 -16 -16 -16 -16 -16 -16 -15 -15 -15 -15 -15 -15 -15 -15 -15 -15 -15 -15 -15 -15 -15 -15 -15
-14 -15 -14 -14 -15 -15 -15 -15 -16 -16 -18 -18 -19 -19 -18 -18 -18 -18 -17 -17 -17 -16 -16 -16 -16 -16 -16 -16 -16 -15 -16 -16 -16 -15 -15 -15 -15 -15 -15 -15 -15 -16 -16 -15 -16 -16 -16 -16 -16
Height
5844 5841 5839 5837 5838 5834 5831 5829 5827 5825 5824 5825 5825 5825 5825 5825 5825 5829 5827 5827 5827 5828 5828 5828 5829 5831 5832 5834 5836 5838 5841 5842 5842 5844 5845 5846 5848 5848 5850 5852 5855 5852 5854 5854 5855 5855 5857 5857 5858
5841 5839 5836 5833 5833 5829 5826 5826 5825 5823 5821 5820 5819 5820 5822 5821 5821 5822 5823 5823 5823 5824 5825 5826 5826 5827 5829 5831 5833 5835 5837 5840 5842 5844 5844 5844 5846 5848 5849 5850 5852 5852 5855 5856 5855 5855 5856 5856 5856
5839 5836 5833 5828 5825 5824 5820 5820 5820 5820 5818 5817 5815 5815 5816 5818 5819 5819 5818 5818 5819 5820 5821 5823 5824 5824 5826 5828 5830 5833 5835 5837 5839 5842 5844 5845 5845 5845 5848 5849 5850 5851 5853 5854 5855 5855 5854 5855 5855
5836 5833 5829 5825 5819 5822 5819 5816 5813 5813 5813 5812 5812 5812 5812 5811 5814 5816 5816 5816 5815 5816 5817 5819 5821 5822 5823 5824 5827 5828 5833 5835 5836 5839 5841 5842 5844 5845 5847 5847 5848 5849 5850 5852 5853 5853 5854 5853 5854
5829 5825 5823 5819 5817 5815 5814 5812 5807 5806 5807 5807 5806 5806 5806 5806 5806 5810 5811 5811 5812 5812 5813 5814 5816 5818 5820 5822 5823 5826 5828 5832 5834 5836 5838 5840 5842 5843 5843 5845 5846 5849 5850 5850 5851 5852 5852 5853 5853
5824 5821 5817 5813 5812 5809 5807 5806 5801 5795 5793 5794 5796 5797 5796 5799 5801 5803 5805 5806 5806 5807 5808 5810 5812 5813 5816 5818 5821 5822 5825 5827 5830 5833 5836 5838 5839 5842 5843 5843 5843 5846 5850 5849 5849 5850 5851 5852 5852
5821 5817 5812 5809 5806 5804 5801 5798 5794 5791 5786 5781 5785 5787 5789 5791 5794 5794 5795 5797 5798 5801 5803 5804 5806 5809 5811 5813 5816 5820 5821 5823 5826 5829 5831 5835 5837 5838 5841 5841 5844 5846 5848 5847 5848 5849 5850 5850 5852
5816 5813 5810 5805 5802 5798 5793 5790 5785 5781 5777 5775 5772 5777 5779 5782 5786 5790 5778 5788 5791 5793 5795 5798 5800 5802 5806 5808 5811 5814 5817 5819 5821 5825 5827 5830 5833 5836 5838 5839 5841 5843 5845 5846 5846 5846 5847 5848 5849
5812 5808 5804 5800 5796 5791 5785 5779 5774 5771 5767 5765 5765 5767 5770 5772 5774 5775 5772 5779 5782 5784 5788 5790 5793 5796 5798 5802 5806 5809 5812 5814 5816 5820 5824 5827 5829 5831 5834 5836 5838 5841 5841 5843 5843 5844 5846 5845 5846
5810 5806 5800 5794 5790 5784 5778 5770 5765 5761 5758 5756 5757 5758 5759 5760 5761 5764 5769 5773 5763 5772 5780 5783 5787 5789 5792 5795 5800 5804 5806 5809 5811 5814 5819 5823 5825 5827 5829 5832 5834 5838 5839 5840 5841 5842 5844 5844 5844
5806 5801 5795 5790 5782 5774 5769 5763 5757 5752 5747 5746 5749 5750 5750 5750 5750 5755 5761 5760 5763 5767 5774 5775 5780 5783 5786 5789 5792 5798 5802 5804 5807 5810 5813 5817 5820 5822 5825 5827 5830 5833 5836 5836 5837 5839 5840 5842 5842
5802 5796 5790 5782 5774 5765 5756 5753 5749 5745 5741 5740 5741 5742 5741 5741 5741 5744 5750 5752 5754 5762 5768 5772 5775 5777 5780 5784 5786 5789 5794 5799 5801 5804 5807 5811 5814 5817 5820 5823 5825 5827 5830 5833 5832 5835 5836 5837 5837
5796 5790 5783 5774 5763 5753 5747 5745 5742 5740 5735 5734 5733 5734 5733 5733 5733 5736 5741 5743 5744 5752 5762 5766 5769 5771 5774 5778 5780 5784 5787 5791 5795 5798 5800 5804 5809 5812 5814 5817 5820 5822 5825 5828 5828 5830 5831 5833 5833
5793 5784 5776 5766 5755 5746 5742 5739 5738 5735 5730 5727 5726 5725 5725 5724 5725 5730 5734 5737 5742 5745 5753 5742 5756 5758 5767 5770 5772 5777 5779 5784 5788 5791 5795 5800 5803 5808 5809 5812 5815 5817 5820 5822 5824 5826 5826 5828 5830
5789 5781 5771 5759 5748 5741 5739 5736 5732 5729 5725 5721 5718 5717 5717 5716 5718 5723 5728 5730 5733 5740 5743 5747 5754 5754 5759 5760 5767 5770 5773 5778 5782 5785 5789 5792 5797 5800 5805 5808 5810 5813 5815 5817 5819 5820 5821 5822 5824
5783 5777 5766 5755 5744 5740 5736 5731 5726 5722 5719 5715 5712 5711 5711 5710 5713 5717 5722 5726 5727 5728 5735 5744 5746 5749 5750 5754 5759 5764 5768 5772 5777 5780 5783 5787 5790 5793 5798 5802 5805 5806 5810 5811 5813 5815 5816 5817 5819
5783 5775 5762 5751 5744 5740 5734 5727 5722 5716 5712 5708 5706 5705 5705 5706 5709 5712 5715 5720 5721 5723 5727 5732 5737 5744 5746 5745 5752 5756 5761 5766 5770 5773 5776 5780 5784 5787 5790 5793 5798 5801 5804 5806 5807 5809 5811 5812 5812
5779 5770 5759 5749 5743 5738 5731 5725 5717 5711 5705 5703 5702 5702 5702 5704 5706 5710 5711 5714 5717 5719 5722 5726 5733 5734 5736 5742 5746 5748 5754 5759 5765 5768 5772 5774 5778 5783 5786 5788 5792 5795 5798 5799 5803 5805 5807 5808 5809
5776 5768 5758 5748 5743 5737 5730 5723 5717 5710 5706 5702 5700 5700 5700 5701 5703 5706 5709 5711 5712 5714 5719 5721 5725 5729 5731 5736 5742 5743 5749 5754 5760 5761 5763 5767 5771 5775 5782 5785 5787 5789 5793 5795 5797 5799 5801 5802 5802
5775 5767 5758 5748 5741 5736 5729 5723 5716 5711 5707 5703 5701 5699 5699 5698 5699 5701 5704 5708 5711 5711 5714 5718 5721 5727 5730 5732 5735 5739 5744 5748 5752 5755 5756 5763 5766 5769 5773 5778 5782 5784 5787 5790 5793 5794 5794 5796 5796
5775 5768 5759 5749 5741 5735 5729 5723 5717 5711 5708 5704 5702 5699 5697 5696 5698 5699 5701 5704 5707 5709 5711 5715 5718 5722 5727 5729 5731 5734 5739 5744 5748 5750 5753 5753 5759 5763 5768 5770 5774 5779 5781 5782 5785 5786 5787 5789 5790
5776 5768 5759 5750 5740 5735 5730 5725 5718 5712 5708 5705 5703 5700 5698 5696 5696 5697 5699 5702 5705 5708 5710 5712 5717 5721 5725 5728 5729 5730 5734 5738 5742 5744 5748 5751 5755 5760 5763 5765 5767 5769 5773 5774 5776 5777 5779 5780 5781
5775 5768 5760 5750 5742 5734 5729 5726 5721 5716 5710 5706 5703 5700 5698 5696 5696 5695 5696 5698 5701 5704 5708 5709 5711 5717 5721 5722 5725 5727 5729 5732 5735 5739 5742 5745 5750 5753 5757 5759 5761 5764 5766 5766 5768 5770 5771 5772 5775
5775 5769 5761 5752 5743 5736 5728 5726 5721 5716 5712 5707 5704 5700 5698 5696 5695 5694 5694 5695 5697 5699 5701 5705 5707 5712 5716 5718 5721 5724 5726 5727 5729 5733 5735 5740 5743 5747 5750 5752 5754 5758 5759 5761 5761 5762 5764 5765 5765
5774 5770 5763 5755 5744 5737 5729 5724 5720 5716 5712 5708 5704 5701 5698 5696 5694 5693 5693 5694 5693 5696 5698 5700 5703 5707 5711 5714 5718 5720 5723 5725 5728 5729 5732 5734 5737 5741 5743 5746 5748 5750 5753 5756 5756 5757 5757 5759 5759
5774 5770 5764 5756 5747 5740 5731 5725 5720 5716 5712 5708 5704 5701 5698 5696 5694 5692 5691 5690 5691 5691 5693 5696 5698 5701 5704 5708 5712 5713 5718 5722 5724 5725 5727 5729 5730 5733 5737 5740 5741 5743 5745 5747 5748 5749 5751 5751 5752
5774 5769 5765 5759 5750 5743 5734 5728 5721 5716 5713 5709 5705 5701 5699 5697 5694 5692 5690 5689 5687 5687 5688 5690 5692 5696 5698 5701 5704 5707 5711 5713 5716 5718 5720 5722 5723 5725 5729 5732 5733 5736 5738 5739 5742 5742 5744 5742 5745
5772 5770 5764 5759 5752 5745 5738 5730 5722 5716 5713 5710 5708 5705 5702 5699 5696 5693 5691 5688 5686 5685 5685 5686 5687 5688 5691 5695 5697 5699 5703 5705 5708 5710 5713 5714 5717 5718 5721 5723 5725 5726 5728 5731 5732 5735 5737 5736 5737
5773 5768 5764 5760 5753 5746 5740 5733 5725 5718 5714 5711 5709 5707 5704 5701 5698 5695 5692 5689 5686 5684 5683 5683 5683 5684 5685 5686 5690 5693 5696 5699 5702 5704 5706 5708 5710 5711 5713 5716 5718 5719 5721 5722 5725 5726 5727 5727 5729
5771 5767 5764 5759 5755 5748 5742 5737 5728 5720 5715 5711 5710 5707 5704 5702 5699 5696 5693 5691 5688 5686 5683 5681 5680 5681 5682 5683 5684 5687 5690 5692 5693 5696 5698 5700 5703 5704 5706 5708 5711 5713 5711 5715 5716 5717 5719 5721 5721
Wind_Speed
16 17 20 19 17 16 19 21 21 25 25 25 23 23 24 22 22 19 20 22 21 19 17 16 18 21 22 24 24 24 22 23 22 21 22 21 19 18 16 13 12 13 9 10 6 7 7 6 7
16 20 22 23 21 22 25 24 23 26 28 28 29 28 26 27 25 21 21 22 22 22 20 19 20 21 22 25 25 26 25 24 23 22 24 23 21 20 17 13 12 12 10 8 7 7 7 6 7
19 20 21 25 26 25 28 27 26 29 29 30 32 32 32 29 28 25 23 22 24 24 23 22 21 22 23 24 26 26 26 25 25 23 25 24 23 23 20 15 13 13 9 10 9 7 6 7 8
25 25 24 24 26 25 28 28 30 31 31 33 35 31 33 32 30 28 27 27 27 28 26 24 24 23 24 25 25 25 26 27 26 26 24 26 24 24 22 19 17 15 11 8 9 8 7 8 8
30 30 26 25 25 24 24 28 33 36 37 37 39 36 33 35 32 31 31 29 28 29 29 26 24 25 26 26 25 26 25 26 27 27 26 26 26 25 24 22 18 15 10 8 8 7 7 8 7
29 29 30 26 23 24 25 29 31 35 37 39 38 39 37 35 36 33 36 31 31 30 30 29 26 26 26 26 26 25 26 26 28 27 27 27 27 26 26 25 22 17 13 10 8 8 8 8 7
27 28 28 26 25 28 32 35 33 32 35 37 36 34 37 37 34 33 34 36 34 33 32 32 29 27 26 26 26 25 26 27 27 27 28 28 28 27 27 26 23 19 16 12 10 9 9 9 9
26 27 26 25 28 33 36 36 36 32 34 33 35 32 33 40 38 30 44 36 39 38 36 35 33 28 27 27 28 26 26 28 29 28 27 29 28 29 27 27 26 22 18 14 12 11 11 11 11
24 25 26 26 32 38 39 38 35 29 30 32 32 27 31 38 43 44 22 26 36 43 38 35 34 32 29 28 27 27 29 29 31 32 28 29 30 29 29 29 27 24 21 18 15 13 13 12 13
24 24 26 30 36 39 41 36 29 27 28 32 33 27 28 37 46 46 46 36 36 40 39 36 35 33 32 30 30 28 26 31 30 31 30 29 29 30 30 29 27 25 23 21 19 16 16 15 13
26 25 28 33 39 43 40 29 26 24 23 28 30 26 29 35 45 42 51 48 32 33 37 37 36 36 34 34 33 30 29 26 28 31 32 31 32 32 31 30 28 27 25 24 22 19 18 18 18
28 30 35 41 45 44 34 24 21 23 22 22 26 27 29 32 42 46 46 49 30 30 39 37 36 34 35 35 35 35 33 29 27 31 35 31 32 33 32 32 30 28 28 27 25 23 22 21 21
32 36 41 46 48 40 27 19 18 19 21 24 27 29 33 34 36 45 43 52 47 34 36 43 41 38 36 37 36 37 37 33 31 32 37 36 35 34 35 33 33 31 30 30 29 27 25 25 24
34 39 44 49 46 32 21 19 17 18 20 23 25 27 32 37 38 41 45 47 28 34 39 50 32 36 39 36 38 38 39 38 35 33 28 35 35 34 34 34 34 32 32 31 31 30 29 29 27
35 39 45 49 36 22 16 19 23 21 16 20 25 26 27 32 37 38 43 39 46 34 23 37 44 31 34 37 40 39 38 39 38 36 30 22 23 38 38 34 34 34 33 33 31 30 31 30 30
38 42 46 45 28 20 18 24 27 22 17 19 23 24 24 29 32 35 36 36 46 45 22 34 28 38 45 43 43 43 39 36 36 39 35 29 26 29 38 38 39 39 38 33 32 30 30 27 28
38 42 46 45 25 24 25 28 27 24 21 19 19 21 22 25 26 32 37 37 47 48 44 20 20 33 44 41 32 31 44 41 36 35 38 36 31 31 33 45 41 39 40 39 36 34 29 29 26
40 43 46 41 30 28 29 30 29 25 16 14 13 16 20 22 24 28 34 29 46 48 48 45 25 27 19 33 37 43 38 39 38 41 41 39 35 31 30 31 27 36 42 43 39 34 32 31 27
41 44 46 40 28 28 31 30 29 20 13 11 8 10 17 21 22 24 27 26 28 49 45 49 32 21 19 21 42 30 38 46 43 44 48 37 39 38 32 31 29 27 27 27 35 29 42 46 38
40 42 43 35 29 29 33 31 28 21 14 10 7 6 11 16 19 20 20 33 27 22 41 46 48 40 19 23 20 35 38 38 47 39 30 41 40 32 38 33 32 31 30 30 33 34 33 31 31
39 41 42 41 32 27 29 30 28 25 16 11 8 8 14 11 14 16 16 16 21 21 21 40 40 30 31 18 26 26 40 40 38 41 30 28 32 28 35 37 34 33 32 34 35 33 33 36 38
36 40 42 42 41 28 24 27 26 24 20 12 11 9 10 6 8 12 13 14 17 15 15 19 22 29 36 41 28 25 25 36 35 30 26 29 36 35 32 34 35 39 38 40 38 38 38 31 36
35 39 41 42 42 34 22 22 24 22 19 18 13 12 10 7 7 6 7 9 13 10 9 11 18 22 23 21 26 24 24 29 33 35 30 20 27 25 26 25 28 27 33 29 38 44 47 44 46
32 36 39 41 43 43 35 18 22 23 21 17 15 12 10 8 7 8 4 6 8 10 10 10 7 21 19 16 18 19 17 19 21 25 22 19 19 33 35 32 31 29 29 32 30 31 35 30 33
32 34 37 39 43 43 40 26 20 22 22 19 17 15 12 10 8 7 6 8 6 7 11 12 13 12 14 15 19 18 17 16 16 15 14 13 16 18 29 29 25 31 30 27 28 20 20 22 20
26 30 35 37 40 41 42 35 23 19 21 19 16 15 15 14 12 10 7 9 11 9 9 12 14 16 17 19 20 21 24 25 25 22 22 22 20 20 19 22 33 25 31 34 31 29 30 26 25
25 28 31 34 37 39 40 38 31 16 17 18 18 16 14 15 16 17 14 6 7 9 9 9 11 15 18 20 22 23 25 26 27 27 27 27 27 26 28 26 23 24 25 26 26 29 28 31 32
22 26 28 32 35 36 36 38 36 21 14 15 12 13 14 15 14 14 15 13 6 5 7 10 12 12 16 19 21 21 23 26 27 27 29 30 30 30 32 30 29 28 28 30 29 28 24 40 31
18 21 25 28 31 34 36 36 35 29 13 14 10 12 12 13 15 15 15 16 14 8 6 7 8 11 14 15 18 21 22 22 24 28 29 28 29 28 29 30 31 30 33 33 34 35 30 34 33
16 18 21 25 28 30 33 35 35 31 20 11 13 12 14 14 14 14 14 15 16 15 9 4 7 8 10 11 14 17 19 21 22 23 23 26 28 28 28 28 29 29 32 31 28 31 33 34 32
Wind_Direction
296 296 299 303 296 295 275 261 263 270 265 261 256 255 259 258 261 255 254 248 251 253 243 233 230 228 223 220 220 221 220 216 208 213 208 204 205 200 202 208 216 220 200 181 198 198 213 224 233
296 291 295 296 290 289 280 278 270 268 270 270 270 259 252 257 253 256 254 248 247 246 247 237 228 228 230 225 221 223 222 221 218 217 215 209 205 203 204 204 214 212 203 226 218 211 214 224 241
302 299 293 296 296 294 286 287 285 279 274 271 273 273 269 263 262 256 249 247 247 244 245 244 235 228 229 232 228 225 226 224 222 221 220 219 210 206 206 207 216 211 228 227 233 246 238 231 246
321 317 314 302 293 295 295 295 288 283 275 275 273 262 266 266 263 262 256 251 246 243 241 243 241 235 231 231 233 231 227 227 224 224 226 222 217 212 212 213 219 222 228 225 236 248 245 226 244
324 326 322 306 298 298 293 295 294 289 283 275 270 266 255 259 255 259 254 254 249 242 240 238 243 238 236 239 232 231 230 230 228 225 226 226 224 220 214 217 222 236 232 234 244 253 240 232 236
330 320 318 312 308 301 298 298 297 290 282 277 270 266 255 250 255 251 255 249 248 241 241 241 242 241 236 239 243 236 229 228 228 228 228 229 225 226 222 221 220 229 246 240 240 247 238 237 236
326 320 315 313 308 304 307 309 301 292 285 268 268 260 259 251 251 248 245 244 241 243 241 237 238 241 238 237 239 239 237 229 228 227 226 229 230 227 230 228 231 231 239 245 245 242 240 232 243
327 321 317 310 309 310 312 310 303 295 289 276 266 259 250 243 240 245 240 240 244 237 234 236 233 233 237 235 236 239 240 237 226 227 228 228 229 231 230 233 231 231 238 243 242 243 241 234 240
328 323 319 315 313 315 315 309 301 294 281 273 265 262 248 241 232 232 225 236 244 234 230 230 232 229 229 230 230 233 237 245 228 228 225 229 229 229 232 235 236 233 237 242 243 246 247 239 241
333 328 320 318 317 315 314 307 300 293 278 256 254 254 248 236 232 226 228 232 213 216 219 223 229 225 224 224 226 230 235 241 237 221 223 230 229 229 229 235 238 237 237 240 244 243 248 243 235
335 328 325 325 321 317 317 299 297 286 280 259 249 247 246 242 233 231 225 235 209 225 219 220 224 225 222 222 224 222 230 235 243 231 221 222 228 232 230 231 234 236 237 240 243 244 244 246 244
339 335 335 332 325 322 312 296 282 284 277 259 250 249 246 248 237 232 227 231 209 210 214 219 222 230 226 227 225 223 223 230 233 242 226 223 224 226 231 230 231 233 235 236 240 239 240 240 242
345 341 339 334 328 323 312 298 297 291 276 263 254 249 250 252 247 235 235 233 239 223 211 221 218 224 229 227 228 226 224 225 230 236 233 220 223 223 228 230 231 232 235 237 240 243 242 243 243
351 344 343 338 333 320 314 311 315 306 290 270 261 256 258 248 244 236 233 236 233 230 213 220 214 216 225 227 227 230 227 227 228 238 240 237 226 226 232 228 232 234 236 239 241 244 249 249 249
352 350 346 341 338 333 321 322 322 313 296 273 261 254 264 251 238 233 231 238 234 249 232 227 223 220 218 220 232 230 234 232 232 234 239 232 241 237 224 235 233 235 239 240 242 245 248 254 258
358 354 351 352 356 360 346 327 324 317 302 286 266 256 261 250 237 231 228 229 234 232 229 237 225 230 235 242 236 231 232 233 235 238 236 234 222 231 232 229 233 233 238 240 241 245 248 252 257
359 358 359 358 6 357 346 339 336 326 305 287 278 263 254 251 238 236 227 230 227 234 230 227 230 227 224 233 238 225 230 227 228 230 234 234 232 229 240 238 228 230 236 239 243 243 250 250 256
0 2 4 4 2 358 350 348 344 340 324 305 296 270 247 249 243 236 235 245 233 234 237 233 255 221 258 234 237 241 219 231 236 236 238 238 239 236 237 242 239 238 234 235 242 249 251 254 258
1 4 6 6 1 360 355 357 350 355 359 337 322 286 252 247 253 235 240 244 253 237 240 236 245 247 273 266 231 226 222 230 226 233 236 233 236 242 236 238 238 243 244 236 242 252 246 255 261
4 8 9 7 359 357 0 2 356 355 355 343 331 309 278 255 258 249 252 245 257 281 251 244 243 254 252 242 236 223 230 227 220 227 200 229 235 242 238 240 240 240 243 244 242 247 250 249 252
4 8 11 7 2 351 358 2 1 359 3 347 323 284 313 253 254 250 248 253 266 276 285 248 248 255 253 265 253 243 211 219 224 227 210 198 227 242 241 241 240 244 246 247 246 251 257 257 254
3 7 12 11 7 356 355 4 7 359 0 352 342 325 312 313 257 249 248 243 262 270 289 289 267 268 261 262 264 255 237 222 209 195 219 227 232 235 247 249 252 249 243 246 251 252 256 270 256
7 5 11 14 12 7 355 356 7 10 0 359 350 338 336 306 292 257 253 249 253 255 273 266 274 262 254 259 257 259 257 241 238 220 217 242 244 234 238 249 246 265 259 262 257 256 260 263 262
7 6 9 14 14 12 11 353 358 7 9 8 354 350 343 334 317 293 283 261 244 240 249 258 260 269 275 265 260 264 269 282 276 262 271 253 252 250 253 251 250 258 255 261 261 268 262 269 273
3 7 7 12 14 14 13 6 351 0 4 3 2 358 353 343 325 310 279 261 241 231 228 224 218 242 252 261 257 250 252 254 255 262 270 270 271 277 260 253 255 254 248 257 265 262 265 258 255
5 5 7 12 16 13 12 9 360 353 3 1 357 357 356 354 345 338 314 277 256 237 231 231 225 223 235 234 235 241 247 252 262 260 259 259 257 260 274 279 250 265 255 264 273 263 262 261 267
3 6 6 9 15 15 12 10 4 352 355 3 6 10 22 26 16 8 359 335 280 266 245 244 241 234 233 236 237 235 236 236 243 249 247 246 245 248 252 257 256 262 268 267 272 262 263 259 261
0 1 8 7 11 15 13 11 3 358 350 1 14 26 25 24 23 18 20 14 345 291 262 242 242 246 240 238 241 243 242 240 238 239 240 241 244 243 244 248 251 253 250 251 257 261 265 256 268
356 1 6 7 8 9 13 12 7 0 351 354 358 6 11 15 22 30 24 21 16 345 294 281 253 243 245 249 247 246 243 241 241 240 241 240 240 240 240 240 245 245 248 251 252 249 245 257 259
351 355 3 2 3 8 10 11 10 6 356 352 352 343 355 0 4 10 9 7 10 22 26 326 266 254 244 243 245 245 243 243 241 238 241 244 244 245 245 244 247 248 253 252 251 247 244 247 243